NOAA 16 DEB, 41270

Orbit data source: Space-Track

NOAA 16 DEB, 41270 is space debris in SSO originally from a launch on Thu, 21 Sep 2000 UTC launched from the Air Force Western Test Range (AFWTR). Debris objects in space refer to the collection of defunct objects orbiting the Earth. Examples of debris include non-operational satellites, rocket bodies, and fragments generated from explosions, collisions, or faulty payload assembly.

Loading next visibility...
Identifier
41270, 2000-055FW
Orbit
SSO
Country
Flag of USUS
Related business
Manufacturer
Unknown
Mission
Spacecraft
Bus & Motor
Unknown
Mass
Unknown
Launch date (UTC)
2000-09-21 (26 years ago)
Launch vehicle
Unknown
Launch site
Air Force Western Test Range (AFWTR)
Object type
Payload
Rocket body
Debris
Shape & HBR
Unknown shape, 0.1 m
Radar Cross Section
Medium (>0.1 m² and <1 m²)

Expand to show TLE details & history
Last TLE update: 2 days ago

TLE from 2 days ago
0 NOAA 16 DEB
1 41270U 00055FW  26171.32204434  .00006057  00000-0  20192-2 0  9997
2 41270  98.9782 307.7870 0020941 217.8746 142.0967 14.37816412541323
Epoch: 2026-06-20T07:43Z
TLE epoch observation values (Epoch: 2026-06-20T07:43:44.630Z)
Latitude
-0.00007°
Longitude
-76.68728°
Altitude
780.47 km
Speed
7.458 km/s
True Right ascension
20h 31m 08s
True Declination
0° 00' 00"
Sunlit
Object was in full shadow at epoch
Visualization orbit readout
Latitude
Unknown
Longitude
Unknown
Altitude
Unknown
Speed
Unknown
Apparent Right ascension
Unknown
Apparent Declination
Unknown
Sunlit
N/A
Visualization observer readout
Local Sidereal Time
21:36:25
Azimuth
Unknown
Elevation
Unknown
Doppler factor
Unknown
Orbital elements
Apogee altitude
777.824 km
Perigee altitude
747.916 km
Semi-major axis
7,141.007 km
Eccentricity
0.00209
Inclination
98.9782°
RAAN
307.787°
Arg. of periapsis
217.8746°
True anomaly
142.24381°
Mean anomaly
142.0967°
Eccentric anomaly
142.17029°
Mean motion
3.5967 °/min
Orbital period
100.09 mins
BSTAR
0.0020192
Loading maneuver chart data...
Computing Atmospheric mass density...
Loading historical data...
Loading historical data...
Loading historical data...
Loading historical data...
Loading historical data...
Loading historical data...
Loading historical data...

Documentation

Showing up to 5 results
|